User: anonymous   Login
Location: Unspecified
(0.0000°N, 0.0000°E)
Time: 14:56:58
(UTC+00:00)
Language:

ELFIN A - Orbit

View from above orbital plane
View from above orbital plane
View from above satellite
View from above satellite

Ground track
Ground track

The orbit data is extracted from the following two-line orbital elements,

1 43617U 18070E   19048.49613520  .00002954  00000-0  80684-4 0  9999
2 43617  93.0408 313.6662 0018946  58.1536 302.1558 15.37298700 23797
Epoch (UTC): 17 February 2019 11:54:26
Eccentricity: 0.0018946
inclination: 93.0408°
perigee height: 441 km
apogee height: 467 km
right ascension of ascending node: 313.6662°
argument of perigee: 58.1536°
revolutions per day: 15.37298700
mean anomaly at epoch: 302.1558°
orbit number at epoch: 2379

The dashed part of the orbit path shows where the satellite is in the earth's shadow,  

DLR